FW9464 Weather Reports


Display with metric or nautical units.
time (UTC)temp
F
wind
direction
speed
MPH
gust
MPH
rain 1hr
in
rain 24hr
in
rain mn
in
humidity
%
barometer
mb
20260505022449 62 250 2.0 7.0 0.00 0.00 0.00 75 1019.8
20260505021946 63 189 0.0 7.0 0.00 0.00 0.00 75 1019.7
20260505021443 63 8 2.0 8.0 0.00 0.00 0.00 73 1019.9
20260505020938 65 206 0.0 5.0 0.00 0.00 0.00 71 1019.6
20260505020434 65 235 4.0 4.0 0.00 0.00 0.00 70 1019.6
20260505015931 65 203 4.0 10.0 0.00 0.00 0.00 69 1019.6
20260505015428 66 10 3.0 6.0 0.00 0.00 0.00 68 1019.6
20260505014926 66 230 4.0 5.0 0.00 0.00 0.00 67 1019.6
20260505014422 66 352 0.0 8.0 0.00 0.00 0.00 68 1019.6
20260505013919 67 191 2.0 7.0 0.00 0.00 0.00 66 1019.3
20260505013416 67 114 0.0 3.0 0.00 0.00 0.00 67 1019.5
20260505012914 68 132 0.0 5.0 0.00 0.00 0.00 66 1019.7
20260505012412 68 273 3.0 8.0 0.00 0.00 0.00 65 1019.3
20260505011908 68 257 7.0 8.0 0.00 0.00 0.00 65 1019.4
20260505011405 69 90 0.0 5.0 0.00 0.00 0.00 64 1019.6
20260505010901 70 249 0.0 6.0 0.00 0.00 0.00 65 1019.4
20260505010357 69 324 5.0 6.0 0.00 0.00 0.00 64 1019.3
20260505005853 69 270 1.0 6.0 0.00 0.00 0.00 63 1019.6
20260505005350 69 15 3.0 7.0 0.00 0.00 0.00 64 1019.5
20260505004848 70 18 1.0 6.0 0.00 0.00 0.00 63 1019.5
20260505004343 70 209 1.0 7.0 0.00 0.00 0.00 63 1019.4
20260505003841 70 315 3.0 8.0 0.00 0.00 0.00 61 1019.6
20260505003338 71 14 2.0 6.0 0.00 0.00 0.00 61 1019.3
20260505002834 71 270 1.0 5.0 0.00 0.00 0.00 60 1019.5
20260505002331 71 202 3.0 10.0 0.00 0.00 0.00 60 1019.4
20260505001830 72 197 2.0 7.0 0.00 0.00 0.00 59 1019.5
20260505001326 72 338 2.0 8.0 0.00 0.00 0.00 60 1019.3
20260505000824 73 270 0.0 7.0 0.00 0.00 0.00 59 1019.3
20260505000321 73 213 3.0 6.0 0.00 0.00 0.00 60 1019.4
20260504235818 73 111 0.0 13.0 0.00 0.00 0.00 57 1019.6
20260504235315 73 117 5.0 8.0 0.00 0.00 0.00 57 1019.4
20260504234811 73 99 3.0 8.0 0.00 0.00 0.00 59 1019.4
20260504234309 73 19 2.0 9.0 0.00 0.00 0.00 57 1019.3
20260504233805 74 203 4.0 8.0 0.00 0.00 0.00 58 1019.4
20260504233301 74 138 5.0 5.0 0.00 0.00 0.00 59 1019.4
20260504232758 74 264 2.0 11.0 0.00 0.00 0.00 56 1019.3
20260504232255 75 289 0.0 5.0 0.00 0.00 0.00 56 1019.4
20260504231752 74 276 2.0 6.0 0.00 0.00 0.00 58 1019.6
20260504231248 75 171 0.0 8.0 0.00 0.00 0.00 55 1019.3
20260504230744 75 259 7.0 7.0 0.00 0.00 0.00 54 1019.3
20260504230243 75 117 0.0 6.0 0.00 0.00 0.00 55 1019.8
20260504225741 76 341 2.0 7.0 0.00 0.00 0.00 57 1019.2
20260504225237 75 192 2.0 7.0 0.00 0.00 0.00 56 1019.7
20260504224734 75 198 0.0 9.0 0.00 0.00 0.00 59 1019.6
20260504224231 75 168 0.0 7.0 0.00 0.00 0.00 57 1019.5
20260504223728 75 207 4.0 9.0 0.00 0.00 0.00 58 1019.5
20260504223223 75 227 3.0 9.0 0.00 0.00 0.00 57 1019.5
20260504222721 75 319 4.0 6.0 0.00 0.00 0.00 57 1019.5
20260504222218 75 143 5.0 6.0 0.00 0.00 0.00 58 1019.7
20260504221715 75 65 0.0 5.0 0.00 0.00 0.00 58 1019.8
20260504221212 74 303 2.0 5.0 0.00 0.00 0.00 58 1019.8
20260504220708 75 170 3.0 9.0 0.00 0.00 0.00 59 1019.9
20260504220206 75 132 7.0 7.0 0.00 0.00 0.00 58 1019.9
20260504215702 75 100 5.0 6.0 0.00 0.00 0.00 59 1019.8
20260504215200 74 216 0.0 5.0 0.00 0.00 0.00 58 1019.9
20260504214655 74 295 4.0 8.0 0.00 0.00 0.00 58 1019.9
20260504214152 75 157 7.0 7.0 0.00 0.00 0.00 59 1020.0
20260504213648 73 180 2.0 10.0 0.00 0.00 0.00 59 1019.9
20260504213145 73 146 4.0 5.0 0.00 0.00 0.00 62 1019.9
20260504212642 74 192 0.0 4.0 0.00 0.00 0.00 60 1020.1
20260504212138 73 66 0.0 7.0 0.00 0.00 0.00 58 1019.9
20260504211636 73 90 0.0 4.0 0.00 0.00 0.00 60 1020.1
20260504211132 73 304 5.0 10.0 0.00 0.00 0.00 59 1020.2
20260504210630 73 178 4.0 6.0 0.00 0.00 0.00 58 1020.3
20260504210126 73 256 4.0 9.0 0.00 0.00 0.00 60 1020.3
20260504205624 73 240 3.0 6.0 0.00 0.00 0.00 62 1020.2
20260504205121 72 339 0.0 6.0 0.00 0.00 0.00 59 1020.3
20260504204620 71 186 0.0 7.0 0.00 0.00 0.00 62 1020.2
20260504204118 71 194 3.0 9.0 0.00 0.00 0.00 62 1020.4
20260504203617 71 245 2.0 9.0 0.00 0.00 0.00 62 1020.3
20260504203114 71 350 6.0 6.0 0.00 0.00 0.00 62 1020.3
20260504202609 71 109 1.0 8.0 0.00 0.00 0.00 63 1020.3
20260504202106 70 184 2.0 10.0 0.00 0.00 0.00 62 1020.5
20260504201602 70 112 3.0 5.0 0.00 0.00 0.00 64 1020.5
20260504201100 70 213 0.0 6.0 0.00 0.00 0.00 64 1020.4
20260504200556 70 200 5.0 8.0 0.00 0.00 0.00 65 1020.4
20260504200053 69 134 6.0 8.0 0.00 0.00 0.00 65 1020.5
20260504195549 70 174 3.0 9.0 0.00 0.00 0.00 64 1020.4
20260504195046 71 288 2.0 5.0 0.00 0.00 0.00 63 1020.4
20260504194543 70 291 1.0 10.0 0.00 0.00 0.00 66 1020.3
20260504194038 69 194 3.0 7.0 0.00 0.00 0.00 66 1020.4
20260504193535 68 244 0.0 7.0 0.00 0.00 0.00 66 1020.6
20260504193034 69 235 0.0 8.0 0.00 0.00 0.00 66 1020.6
20260504192532 68 256 3.0 6.0 0.00 0.00 0.00 68 1020.4
20260504192029 68 19 3.0 9.0 0.00 0.00 0.00 70 1020.7
20260504191527 68 249 1.0 6.0 0.00 0.00 0.00 68 1020.8
20260504191023 68 244 3.0 5.0 0.00 0.00 0.00 69 1020.8
20260504190519 67 180 2.0 8.0 0.00 0.00 0.00 68 1020.8
20260504190015 67 259 2.0 7.0 0.00 0.00 0.00 70 1020.9
20260504185513 67 208 4.0 6.0 0.00 0.00 0.00 70 1021.0
20260504185009 66 332 2.0 7.0 0.00 0.00 0.00 70 1021.0
20260504184504 66 25 3.0 9.0 0.00 0.00 0.00 70 1020.9
20260504184000 67 124 5.0 10.0 0.00 0.00 0.00 72 1020.9
20260504183457 66 86 5.0 7.0 0.00 0.00 0.00 71 1020.9
20260504182955 66 134 4.0 8.0 0.00 0.00 0.00 71 1020.9
20260504182452 66 344 3.0 7.0 0.00 0.00 0.00 73 1021.0
20260504181949 66 20 0.0 6.0 0.00 0.00 0.00 73 1021.1
20260504181446 66 175 3.0 5.0 0.00 0.00 0.00 75 1021.0
20260504180945 65 192 0.0 8.0 0.00 0.00 0.00 74 1020.9
20260504180443 65 285 4.0 6.0 0.00 0.00 0.00 74 1020.9
20260504175941 65 315 2.0 6.0 0.00 0.00 0.00 73 1020.8
20260504175438 65 357 5.0 5.0 0.00 0.00 0.00 73 1020.8
20260504174936 65 154 1.0 7.0 0.00 0.00 0.00 74 1020.9
20260504174433 64 121 4.0 9.0 0.00 0.00 0.00 75 1021.0
20260504173930 65 327 3.0 6.0 0.00 0.00 0.00 74 1020.7
20260504173426 63 114 5.0 8.0 0.00 0.00 0.00 77 1020.8
20260504172924 64 33 4.0 7.0 0.00 0.00 0.00 76 1020.8
20260504172420 63 147 2.0 10.0 0.00 0.00 0.00 76 1020.8
20260504171917 63 45 3.0 6.0 0.00 0.00 0.00 77 1020.9
20260504171414 63 256 3.0 9.0 0.00 0.00 0.00 77 1020.9
20260504170911 64 165 4.0 5.0 0.00 0.00 0.00 80 1021.0
20260504170407 63 18 0.0 7.0 0.00 0.00 0.00 79 1020.9
20260504160326 60 358 3.0 9.0 0.00 0.00 0.00 82 1020.5
20260504150751 58 270 5.0 5.0 0.00 0.00 0.00 85 1020.3
20260504150247 58 81 0.0 3.0 0.00 0.00 0.00 86 1020.0
20260504141217 55 101 3.0 5.0 0.00 0.00 0.00 89 1019.7
20260504140714 55 294 2.0 5.0 0.00 0.00 0.00 89 1019.9
20260504140209 55 45 2.0 3.0 0.00 0.00 0.00 90 1019.7
20260504130638 50 278 0.0 0.0 0.00 0.00 0.00 99 1019.1
20260504130134 50 291 0.0 0.0 0.00 0.00 0.00 99 1019.0
20260504110526 50 7 0.0 0.0 0.00 0.00 0.00 93 1018.7
20260504100442 52 352 0.0 2.0 0.00 0.00 0.00 87 1018.4
20260504081835 55 8 0.0 0.0 0.00 0.00 0.00 75 1018.8
20260504081332 55 8 0.0 1.0 0.00 0.00 0.00 75 1018.7
20260504080827 55 352 0.0 0.0 0.00 0.00 0.00 76 1018.7
20260504080325 55 352 0.0 0.0 0.00 0.00 0.00 75 1018.9
20260504070252 55 15 1.0 1.0 0.00 0.00 0.00 83 1018.9
20260504060213 57 15 0.0 0.0 0.00 0.00 0.00 80 1018.8
20260504050640 59 0 0.0 1.0 0.00 0.00 0.00 78 1018.8
20260504050137 59 0 0.0 0.0 0.00 0.00 0.00 79 1018.7
20260504045635 59 352 0.0 0.0 0.00 0.00 0.00 76 1018.7
20260504045134 60 352 0.0 1.0 0.00 0.00 0.00 82 1018.5
20260504044633 59 0 0.0 0.0 0.00 0.00 0.00 76 1018.8
20260504044129 60 0 0.0 0.0 0.00 0.00 0.00 77 1018.7
20260504043626 60 0 0.0 0.0 0.00 0.00 0.00 74 1018.5
20260504043124 61 0 0.0 1.0 0.00 0.00 0.00 73 1018.6
20260504042621 61 8 0.0 0.0 0.00 0.00 0.00 74 1018.6
20260504042117 61 8 0.0 0.0 0.00 0.00 0.00 75 1018.5
20260504041613 61 29 0.0 0.0 0.00 0.00 0.00 75 1018.1
20260504041110 62 29 0.0 0.0 0.00 0.00 0.00 79 1018.3
20260504040607 62 29 0.0 0.0 0.00 0.00 0.00 74 1018.4
20260504040103 62 29 0.0 0.0 0.00 0.00 0.00 74 1018.4
20260504035600 63 29 0.0 0.0 0.00 0.00 0.00 73 1018.4
20260504035056 63 29 0.0 0.0 0.00 0.00 0.00 78 1018.3
20260504034555 64 29 0.0 0.0 0.00 0.00 0.00 79 1018.3
20260504034051 64 7 0.0 1.0 0.00 0.00 0.00 73 1018.3
20260504033549 65 0 0.0 1.0 0.00 0.00 0.00 74 1018.2
20260504033046 65 15 0.0 0.0 0.00 0.00 0.00 71 1018.0
20260504032543 66 15 0.0 0.0 0.00 0.00 0.00 73 1018.3
20260504032040 66 0 0.0 0.0 0.00 0.00 0.00 72 1018.4
20260504031537 67 0 0.0 0.0 0.00 0.00 0.00 71 1018.2
20260504031033 68 352 0.0 0.0 0.00 0.00 0.00 70 1018.4
20260504030531 69 5 1.0 2.0 0.00 0.00 0.00 72 1018.2
20260504030027 70 90 0.0 2.0 0.00 0.00 0.00 58 1018.2
20260504025524 72 331 0.0 2.0 0.00 0.00 0.00 61 1018.2
20260504025020 72 90 0.0 1.0 0.00 0.00 0.00 57 1018.4
20260504024518 73 90 0.0 1.0 0.00 0.00 0.00 58 1018.2
20260504024014 74 346 0.0 0.0 0.00 0.00 0.00 53 1018.3
20260504023511 75 106 0.0 3.0 0.00 0.00 0.00 54 1018.3
20260504023007 75 172 0.0 0.0 0.00 0.00 0.00 53 1018.2